Regional Weather Roundup
Issued by NWS Goodland, KS

Home | Current Version | Previous Version | Graphics & Text | Print | Product List | Glossary On
Versions: 1 2 3 4 5 6 7 8 9 10 11 12 13 14 15 16 17 18 19 20 21 22 23 24 25 26 27 28 29 30 31 32 33 34 35 36 37 38 39 40 41 42 43 44 45 46 47 48 49 50
000
ASUS43 KGLD 250059
RWRGLD

GOODLAND FORECAST AREA HOURLY WEATHER ROUNDUP
NATIONAL WEATHER SERVICE GOODLAND KS
700 PM MDT FRI OCT 24 2014

...OFFICIAL OBSERVATIONS...

CITY           SKY/WX    TMP DP  RH WIND       PRES   REMARKS
GOODLAND KS    CLEAR     59  38  45 CALM      30.09R
HILL CITY KS   CLEAR     61  45  55 CALM      30.01R
IMPERIAL NEB   CLEAR     64  35  34 NE7       30.05R
MCCOOK NEB     CLEAR     69  31  24 NW3       30.02R
AKRON CO       CLEAR     66  24  20 S5        30.13S
BURLINGTON CO  CLEAR     65  27  23 E3        30.12R
LIMON CO       CLEAR     52  32  46 CALM      30.18R
$$

...UNOFFICIAL OBSERVATIONS...

CITY           SKY/WX    TMP DP  RH WIND       PRES   REMARKS
COLBY KS       CLEAR     68  41  37 NE9       30.07R
NORTON KS      CLEAR     70  30  23 SW5       30.00R
SHARON SPRINGS   N/A     68  40  35 S10         N/A
KIT CARSON CO    N/A     71  33  25 CALM        N/A
YUMA CO          N/A     68  30  24 CALM        N/A
$$



USA.gov is the U.S. government's official web portal to all federal, state and local government web resources and services.